Regional Weather Roundup
Issued by NWS

Home | Current Version | Previous Version | Text Only | Print | Product List | Glossary Off
Versions: 1 2 3 4 5 6 7 8 9 10 11 12 13 14 15 16 17 18 19 20 21 22 23 24 25 26 27 28 29 30 31 32 33 34 35 36 37 38 39 40 41 42 43 44 45 46 47 48 49 50

000
ASUS43 KDMX 281207
RWRIA

WEATHER ROUNDUP FOR IOWA
NATIONAL WEATHER SERVICE DES MOINES IA
600 AM CST SUN DEC 28 2014

NOTE: "FAIR" INDICATES FEW OR NO CLOUDS BELOW 12,000 FEET WITH NO
SIGNIFICANT WEATHER AND/OR OBSTRUCTIONS TO VISIBILITY.

* - THESE STATIONS ARE NOT NWS STATIONS...THUS NOT UNDER NWS
QUALITY CONTROL.  THEY ALSO DO NOT REPORT WEATHER SUCH
AS PRECIPITATION OR FOG.

IAZ001>003-012>014-020>022-031>034-043>046-281300-
   NORTHWEST IOWA

CITY           SKY/WX    TMP DP  RH WIND       PRES   REMARKS
CARROLL *      CLEAR     14  10  85 SW5       30.11S WCI   6
CHEROKEE *     CLEAR      6   5  92 CALM      30.10F
DENISON *      CLEAR     12  12 100 S5        30.09F WCI   4
LE MARS *      CLEAR      3   1  92 CALM      30.11S
ORANGE CITY *  CLEAR      9   7  92 CALM      30.07F
SHELDON *      CLEAR      1  -2  85 CALM      30.08R
SIOUX CITY     PTCLDY     2  -2  83 CALM      30.12F
6HR MIN TEMP:   2; 6HR MAX TEMP:   9;

SPENCER        CLEAR      4  -1  80 SW6       30.09S WCI  -7
6HR MIN TEMP:   2; 6HR MAX TEMP:   9;

STORM LAKE *   CLEAR     10   9  92 VRB7      30.09R WCI   0
$$

IAZ055>058-069>071-079>083-090>094-281300-
   SOUTHWEST IOWA

CITY           SKY/WX    TMP DP  RH WIND       PRES   REMARKS
ATLANTIC *     CLEAR     14  12  92 S5        30.13F WCI   6
AUDUBON *      CLEAR     14   9  79 SW3       30.11F
CLARINDA *     CLEAR     14  14 100 S5        30.19S WCI   6
COUNCIL BLFS * CLEAR     18  18 100 SW9       30.11F WCI   6
CRESTON *      CLEAR     14  12  92 S7        30.15F WCI   4
HARLAN  *      CLEAR     14  14 100 S7        30.16S WCI   4
LAMONI         CLEAR     15  12  88 SW6       30.16F WCI   6
6HR MIN TEMP:  15; 6HR MAX TEMP:  20;

RED OAK *      CLEAR     16  14  93 SW5       30.16S WCI   9
SHENANDOAH *   CLEAR     16  14  93 SW3       30.17F
$$

IAZ047>049-059>061-072>074-084-281300-
   CENTRAL IOWA

CITY           SKY/WX    TMP DP  RH WIND       PRES   REMARKS
AMES           CLEAR     15  11  83 S6        30.15F WCI   6
6HR MIN TEMP:  14; 6HR MAX TEMP:  17;

ANKENY *       CLEAR     14  12  92 S3        30.16F
CHARITON *     CLEAR     14  12  92 S6        30.17S WCI   5
DES MOINES     CLEAR     16  12  84 S5        30.16F WCI   9
6HR MIN TEMP:  16; 6HR MAX TEMP:  19;

GRINNELL*      CLEAR     14  12  92 S6        30.16F WCI   5
KNOXVILLE *    CLEAR     16  12  86 SW3       30.16F
MARSHALLTOWN   CLEAR     14  11  87 S5        30.14F WCI   6
6HR MIN TEMP:  12; 6HR MAX TEMP:  17;

PELLA *          N/A     18  15  90 W3        30.19S
PERRY *          N/A     16  14  93 S5        30.14F WCI   9
$$

IAZ004>006-015-016-023>025-035-036-281300-
   NORTH CENTRAL IOWA

CITY           SKY/WX    TMP DP  RH WIND       PRES   REMARKS
ALGONA *       CLEAR      9   5  85 S7        30.11R WCI  -3
CLARION *      CLEAR      9   7  92 S8        30.12S WCI  -4
ESTHERVILLE    CLEAR      8   5  87 SW5       30.08S WCI   0
6HR MIN TEMP:   7; 6HR MAX TEMP:  11;

FORT DODGE *   CLEAR     10   7  85 CALM      30.12S
MASON CITY     CLEAR      6   3  87 S7        30.11F WCI  -6
6HR MIN TEMP:   2; 6HR MAX TEMP:  13;

FOREST CITY *  CLEAR      9   5  85 CALM      30.09F
IOWA FALLS *     N/A     14  10  85 S5        30.13F WCI   6
$$

IAZ007>011-017>019-026>030-037>042-050>054-066-281300-
   NORTHEAST IOWA

CITY           SKY/WX    TMP DP  RH WIND       PRES   REMARKS
CEDAR RAPIDS   CLEAR     14  11  87 CALM      30.16S
6HR MIN TEMP:  13; 6HR MAX TEMP:  16;

CHARLES CITY * CLEAR      9   7  92 S7        30.13S WCI  -3
CLINTON *      CLEAR     14  10  85 W7        30.19F WCI   4
DECORAH *      CLEAR     14  10  85 SW3       30.11S
DUBUQUE        CLEAR     15  13  91 SW6       30.14S WCI   6
6HR MIN TEMP:  15; 6HR MAX TEMP:  18;

MONTICELLO *   CLEAR     16  14  93 CALM      30.17R
OELWEIN *      CLEAR     14  10  85 SW5       30.15S WCI   6
WATERLOO       CLEAR     14  11  87 SW5       30.15F WCI   6
6HR MIN TEMP:  12; 6HR MAX TEMP:  16;

$$

IAZ064-065-067-068-078-281300-
   EAST CENTRAL IOWA

CITY           SKY/WX    TMP DP  RH WIND       PRES   REMARKS
DAVENPORT      CLEAR     17  13  84 W7        30.18S WCI   8
6HR MIN TEMP:  17; 6HR MAX TEMP:  21;

IOWA CITY      CLEAR     16  13  88 W3        30.20S
6HR MIN TEMP:  15; 6HR MAX TEMP:  19;

MT. PLEASANT * PTCLDY    20  19  93 CALM      30.19F
MUSCATINE *    CLEAR     19  16  86 CALM      30.21F
QUAD CITIES    PTCLDY    18  14  84 SW5       30.19F WCI  11
6HR MIN TEMP:  18; 6HR MAX TEMP:  24;

$$

IAZ062-063-075>077-085>089-095>099-281300-
   SOUTHEAST IOWA

CITY           SKY/WX    TMP DP  RH WIND       PRES   REMARKS
BURLINGTON     PTCLDY    25  20  81 CALM      30.19F
6HR MIN TEMP:  25; 6HR MAX TEMP:  28;

FAIRFIELD *    CLEAR     19  16  86 SW3       30.18F
FORT MADISON * CLEAR     27  21  80 CALM      30.20F
KEOKUK *       CLEAR     25  21  86 W3        30.20F
OSKALOOSA *      N/A     17  15  92 W5        30.18F WCI   9
CENTERVILLE *  CLEAR     16  16 100 SW5       30.18F WCI   9
OTTUMWA        CLEAR     16  13  88 W6        30.18F WCI   7
6HR MIN TEMP:  16; 6HR MAX TEMP:  24;

WASHINGTON *   CLEAR     18  18 100 SW3       30.19S
$$

ABBREVIATIONS USED IN REMARKS
   TC - TEMPERATURES IN CELSIUS
  WCI - WIND CHILL INDEX
   HX - HEAT INDEX
  VSB - VISIBILITY
$$



USA.gov is the U.S. government's official web portal to all federal, state and local government web resources and services.